This is the latest recevied weather packets stored in our database for station/object WD9EKA. If no packets are shown the sender has not sent any weather packets the latest 10 day(s).
| Time | Temp. | Humidity | Pressure | Rain* | Wind** | Luminosity | Snow |
|---|---|---|---|---|---|---|---|
| 1778032414 | 8.33° C | 99% | 1005.3 hPa | 1.78 mm | - | - | - |
| 1778032054 | 8.33° C | 99% | 1005.5 hPa | 2.03 mm | - | - | - |
| 1778031694 | 8.33° C | 99% | 1005.1 hPa | 2.03 mm | - | - | - |
| 1778031334 | 8.33° C | 99% | 1004.1 hPa | 2.29 mm | - | - | - |
| 1778030974 | 8.33° C | 99% | 1004.2 hPa | 2.29 mm | - | - | - |
| 1778030614 | 8.33° C | 99% | 1003.9 hPa | 2.54 mm | - | - | - |
| 1778030254 | 8.33° C | 99% | 1004 hPa | 2.54 mm | - | - | - |
| 1778029894 | 8.33° C | 99% | 1004.3 hPa | 2.29 mm | - | - | - |
| 1778029589 | 8.33° C | 99% | 1004.1 hPa | 2.54 mm | - | - | - |
| 1778029268 | 8.33° C | 99% | 1004.7 hPa | 2.54 mm | - | - | - |
| 1778028940 | 8.33° C | 99% | 1004 hPa | 2.29 mm | - | - | - |
| 1778028634 | 8.89° C | 99% | 1004.4 hPa | 1.78 mm | - | - | - |
| 1778028274 | 8.89° C | 99% | 1005.4 hPa | 1.02 mm | - | - | - |
| 1778027914 | 8.89° C | 99% | 1003.9 hPa | 0.51 mm | - | - | - |
| 1778027554 | 8.89° C | 99% | 1004 hPa | 0.51 mm | - | - | - |
| 1778027194 | 8.89° C | 99% | 1003.4 hPa | 0.51 mm | - | - | - |
| 1778026834 | 8.89° C | 99% | 1003.4 hPa | 0.51 mm | - | - | - |
| 1778026474 | 8.89° C | 99% | 1003.5 hPa | 0.51 mm | - | - | - |
| 1778026114 | 8.89° C | 99% | 1003.9 hPa | 0.51 mm | - | - | - |
| 1778025754 | 8.89° C | 99% | 1004.1 hPa | 0.51 mm | - | - | - |
| 1778025393 | 8.89° C | 99% | 1003.8 hPa | 0.76 mm | - | - | - |
| 1778025034 | 8.89° C | 99% | 1003.9 hPa | 0.76 mm | - | - | - |
| 1778024674 | 8.89° C | 99% | 1004.4 hPa | 0.76 mm | - | - | - |
| 1778023954 | 8.89° C | 99% | 1004.1 hPa | 1.27 mm | - | - | - |
| 1778023234 | 8.89° C | 99% | 1004.1 hPa | 1.27 mm | - | - | - |
* Rain latest hour (hover to see other rain measurements)
** Current wind speed in m/s (hover to see current wind gust speed)